{"data":{"norad_id":46723,"epoch":"2026-08-05T04:55:44.203008Z","epoch_age_seconds":4021770,"freshness":"OLD","line1":"1 46723U 20073BF  26217.20537272  .04733989  12147-4  75286-3 0  9993","line2":"2 46723  53.0218 156.3619 0005766 245.3369 114.7074 16.32965134321459","mean_motion":16.32965134,"eccentricity":0.0005766,"inclination_deg":53.0218,"raan_deg":156.3619,"arg_perigee_deg":245.3369,"mean_anomaly_deg":114.7074,"bstar":0.00075286,"rev_number":32145,"period_min":88.183144270366,"perigee_km":180.79930673,"apogee_km":188.36743586218,"semimajor_km":6562.7203712961,"source":"CELESTRAK","updated_at":"2026-08-06T09:00:49.021282Z"}}